Regional Weather Roundup
Issued by NWS Sioux Falls, SD

Home | Current Version | Previous Version | Graphics & Text | Print | Product List | Glossary Off
Versions: 1 2 3 4 5 6 7 8 9 10 11 12 13 14 15 16 17 18 19 20 21 22 23 24 25 26 27 28 29 30 31 32 33 34 35 36 37 38 39 40 41 42 43 44 45 46 47 48 49 50

000
ASUS43 KFSD 131810
RWRFSD

WEATHER ROUNDUP FOR SE SOUTH DAKOTA/SW MINNESOTA/NW IOWA
NATIONAL WEATHER SERVICE SIOUX FALLS SD
1200 PM CST WED DEC 13 2017

NOTE: "FAIR" INDICATES FEW OR NO CLOUDS BELOW 12,000 FEET WITH NO
SIGNIFICANT WEATHER AND OR OBSTRUCTIONS TO VISIBILITY.


SDZ038>040-050-052>070-131900-
SOUTHEAST SOUTH DAKOTA

CITY           SKY/WX    TMP DP  RH WIND       PRES   REMARKS
BROOKINGS      CLOUDY    36  28  73 NW22G32   29.76R
CHAMBERLAIN    SUNNY     46  31  57 NW21G32   29.90F
6HR MIN TEMP:  42; 6HR MAX TEMP:  46;

HURON          CLOUDY    39  30  70 NW23G31   29.85R
6HR MIN TEMP:  38; 6HR MAX TEMP:  43;

MADISON        CLOUDY    36  32  87 N23G37    29.79R
MITCHELL       CLOUDY    41  30  65 NW23G33   29.86F
6HR MIN TEMP:  40; 6HR MAX TEMP:  46; 6HR PCP: TRACE;

SIOUX FALLS    CLOUDY    39  31  72 NW22G37   29.78R
6HR MIN TEMP:  39; 6HR MAX TEMP:  45; 6HR PCP: TRACE;

WINNER         FAIR      46  28  49 NW28G40   29.94F
$$

MNZ071-072-080-081-089-090-097-098-131900-
SOUTHWEST MINNESOTA

CITY           SKY/WX    TMP DP  RH WIND       PRES   REMARKS
FAIRMONT       CLOUDY    32  26  78 NW30G41   29.62R WCI  18
JACKSON        CLOUDY    32  28  86 MISG      29.67R
LUVERNE        CLOUDY    36  30  80 NW20G35   29.74R
MARSHALL       CLOUDY    33  26  75 N36G46    29.70R WCI  18
6HR MIN TEMP:  32; 6HR MAX TEMP:  36; 6HR PCP:  0.03;

MONTEVIDEO     CLOUDY    32  27  80 N32G41    29.72R WCI  17
PIPESTONE      CLOUDY    34  28  80 N16G32    29.73R WCI  23
REDWOOD FALLS  CLOUDY    32  23  69 NW22G31   29.68R WCI  19
WINDOM           N/A     32  19  59 NW38G49   29.66R WCI  16
WORTHINGTON    CLOUDY    32  29  88 NW32      29.71R WCI  17
$$

IAZ001>003-012>014-020>022-031-032-NEZ013-014-SDZ071-131900-
NORTHWEST IOWA

CITY           SKY/WX    TMP DP  RH WIND       PRES   REMARKS
CHEROKEE       CLOUDY    39  33  78 N20G29    29.72R
DENISON        PTSUNNY   45  32  61 NW25G36   29.73R
ESTHERVILLE    CLOUDY    32  27  81 NW39G51   29.66R WCI  16
LE MARS        CLOUDY    41  32  70 NW20G35   29.76R
ORANGE CITY    CLOUDY    41  34  75 NW21G30   29.72S
SHELDON        CLOUDY    37  32  81 NW30G38   29.70S
SIOUX CITY     CLOUDY    45  31  58 NW33G44   29.75R
6HR MIN TEMP:  43; 6HR MAX TEMP:  51; 6HR PCP: TRACE;

SPENCER        CLOUDY    37  30  75 NW32G44   29.68R
6HR MIN TEMP:  36; 6HR MAX TEMP:  44; 6HR PCP:  0.01;

STORM LAKE     CLOUDY    39  32  75 N29G40    29.68S
$$

ABBREVIATIONS USED IN REMARKS
   TC - TEMPERATURE IN CELSIUS
  WCI - WIND CHILL INDEX
   HX - HEAT INDEX
  VSB - VISIBILITY





USA.gov is the U.S. government's official web portal to all federal, state and local government web resources and services.